Location: Strawberry
(45.6646°N, 111.9596°W)
Time: 20:28:43
(UTC+00:00)

AO-27 - Pass Details

Date: 15 December 2022
Orbit: 784 x 798 km, 98.9° (Epoch: 05 February)

Event Time Altitude Azimuth Distance (km) Brightness Sun altitude
Exits shadow 02:15:28 15° 2° (N) 2,069 9.7 -25.4°
Drops below altitude 10° 02:16:20 10° 358° (N) 2,381 10.1 -25.5°
Sets 02:18:46 0° 352° (N) 3,315 10.9 -26.0°
